weather.gov     
National Weather Service

Regional Weather Roundup
NWS Homepage
This page is being discontinued on March 12, 2014.
The same data is available at this site. Please update your bookmarks.
Thank you, and we apologize for the inconvenience.
Please send an email to SR-SRH.Webmaster@noaa.gov with any concerns.


Current Version
Previous Version:    01  02  03  04  05  06  07  08  09  10  11  12  13  14  15  16  17  18  19  20  21  22  23  24  25  26  27  28  29  30  
[Printable]
097
ASUS42 KKEY 232010
RWRKEY

FLORIDA REGIONAL WEATHER ROUNDUP FOR THE FLORIDA KEYS
NATIONAL WEATHER SERVICE KEY WEST FLORIDA
400 PM EDT TUE SEP 23 2014

...SOUTH FLORIDA AND THE KEYS...

CITY           SKY/WX    TMP DP  RH WIND       PRES   REMARKS
FORT MYERS     PTSUNNY   82  68  62 SW5       29.96F
SW REGIONAL AP PTSUNNY   80  67  64 SW5       29.97F
NAPLES         CLOUDY    82  68  62 SE7       29.96S
MIAMI          CLOUDY    78  72  81 CALM      29.97F
WEST KENDALL   CLOUDY    81  73  76 VRB5      29.96F
HOMESTEAD      PTSUNNY   80  73  80 NE5       29.95F
MARATHON       PTSUNNY   83  74  74 NE12      29.93F
BOCA CHICA NAS CLOUDY    83  75  77 E13       29.93F HX  90
KEY WEST INTL  CLOUDY    83  74  74 E12       29.93F

...INTERNATIONAL WEATHER...

CITY           SKY/WX    TMP DP  RH WIND       PRES   REMARKS
NASSAU BAHAMAS PTSUNNY   86  75  70 E7        29.98F HX  95
CANCUN MEXICO  CLOUDY    79  75  89 NW6       29.94S
COZUMEL MEXICO PTSUNNY   79  77  94 NE8       29.92F

ADJACENT COASTAL WATERS...

STATION/POSITION TIME  SKY/WX   TEMP    WIND        PRES    WAVE
                                AIR SEA DIR/SP/G            HT/PER
                 (UTC)          (F)     (DEG/KT/KT) (MB)    (FT/S)
PULASKI SHOAL LI 2000            81     120/  3/  4 1013.5F
SAND KEY         1938            82     110/ 10/ 12 1013.5F
SOMBRERO KEY     2000            81      70/ 12/ 13 1014.0F
LONG KEY         2000            79 84   70/  9/ 10 1014.2F
MOLASSES REEF    2000            80 85   60/  2/  2 1014.0F
FOWEY ROCKS      2000            78 84   CALM  /  2 1014.4F
Buoy 42080       NOT AVBL

$$




U.S. Dept. of Commerce
NOAA National Weather Service
1325 East West Highway
Silver Spring, MD 20910
E-mail: w-nws.webmaster@noaa.gov
Page last modified: May 16, 2007
NATIONAL WEATHER SERVICE: for Safety, for Work, for Fun - FOR LIFE